Theta_e
350 349 349 348 347 347 347 348 347 348 348 348 348 348 348 348 348 348 349 349 350 350 350 351 351 352 353 354 355 355 356 354 354 354 354 354 354 354 355 356 356 357
350 349 348 348 347 346 347 348 347 347 347 348 348 347 347 348 348 348 347 347 349 349 350 351 351 352 353 353 354 354 355 354 353 353 354 354 354 354 353 353 355 356
349 349 348 348 347 347 346 347 347 347 347 347 347 347 347 347 347 347 346 345 346 347 348 350 351 352 353 353 353 353 353 353 353 353 353 354 354 354 353 353 354 355
349 349 348 348 347 347 346 347 346 346 347 347 347 347 346 347 346 346 347 345 344 344 345 348 349 351 353 353 354 354 353 352 353 353 353 353 353 354 353 353 354 355
348 348 348 347 347 347 346 346 346 346 346 346 346 347 346 346 345 345 346 346 345 343 343 345 348 351 352 353 353 353 353 353 353 353 353 352 352 353 353 353 353 354
348 347 347 347 346 347 346 345 345 344 345 346 346 346 346 346 345 344 345 346 345 344 343 344 346 348 350 352 353 353 353 353 353 354 354 353 352 352 353 353 353 354
348 347 347 347 346 346 346 345 345 344 344 346 345 345 344 345 345 344 344 344 344 344 343 343 344 344 347 349 352 353 353 353 353 354 356 355 354 354 353 354 354 354
348 348 347 346 346 346 345 345 344 343 343 344 343 343 342 343 344 343 343 343 342 341 342 342 343 343 344 346 348 350 351 351 352 353 354 355 355 355 354 353 354 354
348 347 347 346 346 346 345 344 343 342 342 343 341 342 342 342 342 342 344 343 342 341 340 341 342 343 343 344 344 345 347 349 350 351 352 353 354 354 354 354 354 353
348 347 347 347 346 346 345 345 344 342 342 342 342 343 342 342 341 341 342 342 341 340 339 340 341 342 343 342 341 341 342 344 346 349 351 352 352 352 352 353 353 352
348 348 347 347 346 346 345 344 344 343 342 342 343 343 344 343 342 341 341 341 341 340 341 340 340 341 341 342 341 341 341 342 344 346 348 349 350 351 351 351 352 351
348 347 348 347 346 346 345 344 343 343 343 342 342 343 343 343 343 341 341 341 341 341 341 341 341 341 341 342 341 341 341 342 343 344 345 347 348 349 350 351 351 350
348 348 347 347 347 347 346 344 344 343 342 342 342 343 343 343 342 342 341 341 341 341 342 342 343 343 343 343 342 342 342 342 343 344 344 344 345 346 349 349 350 350
348 348 347 347 347 346 346 346 345 344 343 343 342 342 343 342 342 342 341 342 341 341 341 342 343 343 343 343 342 341 342 342 342 342 342 342 342 343 346 347 349 349
349 349 348 348 347 347 347 346 346 345 344 343 342 341 342 341 341 342 341 342 342 341 341 341 341 341 341 341 341 340 340 340 340 340 340 340 341 341 344 346 347 348
349 349 349 349 348 347 347 347 347 347 345 345 344 342 342 341 341 342 342 342 342 342 342 341 341 341 340 340 339 339 340 340 340 340 339 339 340 343 345 345 345 346
350 350 350 350 349 349 349 348 348 348 347 346 345 344 343 343 342 342 342 342 342 342 342 342 342 341 340 340 340 340 340 340 341 341 340 341 342 343 344 345 345 346
351 351 351 351 350 351 350 349 349 349 348 348 347 346 345 344 344 343 343 342 342 343 343 342 342 341 341 340 341 341 342 342 342 342 342 343 343 344 345 346 347 348
351 351 352 351 352 351 351 351 351 350 350 349 349 348 347 346 346 345 344 344 343 343 343 343 343 343 342 342 342 342 342 343 343 343 344 345 345 345 346 347 348 348
352 353 353 353 353 352 352 352 352 352 351 350 350 350 349 348 348 347 346 346 345 345 345 344 344 344 344 343 343 343 343 343 344 345 345 346 346 346 347 347 348 348
353 353 354 354 353 354 353 353 353 353 353 352 352 352 351 350 350 349 348 347 347 347 346 346 345 345 345 345 345 345 345 345 345 346 346 347 347 347 347 348 347 348
355 354 355 354 354 355 354 355 354 354 353 353 353 353 352 352 352 351 351 350 350 349 348 347 348 348 347 347 347 346 346 346 346 346 346 347 347 347 348 348 348 348
354 356 356 355 356 356 356 355 355 355 355 354 354 354 354 354 354 353 352 352 352 351 350 350 350 350 349 349 348 348 347 347 347 347 347 347 347 348 348 348 348 349
352 353 354 356 357 357 357 356 356 357 356 355 355 355 355 354 355 354 354 354 353 353 353 353 352 352 351 351 350 349 348 348 348 347 348 348 348 348 349 349 349 349
353 353 354 356 358 358 357 357 357 357 357 356 356 356 356 355 355 355 354 355 355 354 354 354 354 353 352 352 352 351 350 349 349 348 348 349 348 349 349 349 349 350
353 355 355 357 359 359 358 358 358 357 357 357 357 356 356 356 356 355 355 355 354 355 354 354 354 354 353 353 352 352 352 351 350 349 348 349 349 349 350 349 350 350
Wind_Speed
36 35 35 34 33 32 31 29 28 27 27 27 26 25 24 22 21 21 21 21 20 19 19 18 17 15 15 14 13 13 12 12 11 11 10 10 10 10 10 9 9 9
36 36 36 35 34 33 32 31 29 29 28 28 27 26 24 23 22 21 21 22 21 21 20 19 18 17 15 15 15 15 14 13 13 12 12 11 10 10 11 10 9 9
36 36 36 36 36 35 34 33 31 30 29 29 28 26 25 24 23 21 20 21 22 22 21 20 19 18 17 16 15 15 16 16 15 14 13 13 11 11 11 11 10 9
37 37 37 37 37 36 35 34 32 31 30 30 30 28 26 24 23 22 21 20 20 21 22 21 20 19 18 17 17 16 16 17 17 16 15 15 13 12 11 11 11 10
38 38 38 38 37 36 35 34 34 34 33 32 31 30 28 26 25 24 22 21 20 20 21 21 21 20 19 18 18 18 17 17 18 17 16 16 15 13 12 12 13 12
37 37 38 38 37 37 36 36 36 35 35 35 33 32 30 29 27 26 25 23 21 21 20 20 21 20 20 20 19 19 18 18 17 16 16 17 16 16 14 13 14 14
36 36 37 37 37 37 37 37 36 36 36 35 34 32 32 31 30 28 27 25 24 23 22 21 21 20 20 20 20 21 20 19 18 18 18 18 17 17 17 16 16 16
35 36 36 36 36 36 37 37 37 36 36 34 33 32 31 31 31 30 29 28 27 26 26 24 23 22 20 20 21 21 21 20 20 20 20 20 19 19 19 18 18 19
35 35 35 35 36 36 37 37 38 37 36 34 33 32 31 31 32 31 31 30 30 29 28 27 26 24 22 21 21 21 21 21 21 21 22 22 22 22 21 20 20 21
35 34 34 34 36 36 37 37 37 37 37 36 35 33 32 32 32 32 32 31 30 30 30 29 28 27 25 24 23 22 22 22 21 22 22 23 23 23 22 22 21 22
35 34 34 35 36 37 37 37 36 35 36 37 37 35 34 33 32 32 32 32 31 31 31 31 30 29 28 27 26 25 24 24 24 24 24 24 25 24 24 23 23 22
35 35 35 35 36 37 37 37 36 34 34 35 36 36 35 34 33 33 33 33 33 33 32 32 32 31 31 30 29 28 27 27 27 26 26 26 26 26 26 25 25 24
35 36 36 36 36 37 36 36 36 35 35 35 34 35 35 35 35 35 34 34 34 34 34 34 33 32 32 31 31 30 30 29 29 28 28 28 28 28 28 27 26 26
37 37 37 37 37 36 36 36 35 35 35 35 34 34 34 35 35 36 36 36 35 35 34 34 33 33 33 33 32 32 31 31 31 30 30 30 30 29 29 28 28 27
38 37 36 36 36 35 36 36 35 35 35 35 35 35 35 35 35 35 35 35 35 35 34 34 33 34 34 34 34 34 34 33 33 32 31 31 31 30 30 29 29 28
37 37 36 35 35 35 36 36 35 34 34 34 35 35 35 35 34 34 33 34 34 34 35 34 35 36 37 37 36 36 35 34 34 33 33 32 32 31 31 31 30 30
37 36 36 35 36 36 36 36 35 34 33 34 34 34 35 34 34 34 34 34 34 34 34 35 36 37 38 38 37 36 36 35 34 34 34 33 32 32 32 32 31 31
36 36 36 37 36 36 36 35 35 34 33 33 33 34 34 33 33 34 34 34 34 34 34 35 36 37 37 37 37 36 36 35 35 34 34 33 33 33 32 32 32 31
37 36 36 37 37 37 36 35 34 35 35 35 35 34 33 32 33 34 35 35 34 34 35 36 37 37 37 37 36 36 36 35 35 35 34 34 33 33 33 32 32 32
36 37 36 37 37 36 35 35 35 35 35 35 34 33 32 33 34 35 35 36 36 36 37 37 38 38 37 37 36 36 36 35 35 35 35 35 34 34 33 33 33 32
36 37 37 36 36 35 34 34 34 35 35 34 33 33 34 35 35 35 36 36 37 37 37 38 40 40 38 38 37 36 36 35 34 35 35 35 35 35 34 34 34 33
33 35 35 34 34 33 33 34 34 34 35 34 33 33 33 34 34 34 35 36 37 37 37 38 41 40 39 39 38 37 35 34 34 35 35 36 36 36 35 35 35 34
21 27 30 31 31 31 32 33 34 34 34 33 33 33 33 34 35 35 36 36 36 36 37 39 41 40 39 39 39 37 36 35 35 36 36 36 37 37 37 36 35 35
15 20 25 27 28 31 32 33 33 33 33 33 33 34 35 36 36 36 36 36 37 37 38 39 41 40 39 39 39 38 36 36 36 36 36 37 37 37 37 37 36 36
11 17 24 27 28 30 32 32 32 32 33 33 34 35 36 36 35 35 35 36 37 38 39 39 40 40 38 39 39 38 37 37 37 36 36 37 38 38 37 37 37 36
9 12 19 25 28 29 30 31 32 32 32 32 33 35 35 35 34 35 36 36 37 38 38 39 40 40 39 39 39 38 38 38 37 36 36 37 37 37 36 36 36 36
Wind_Direction
217 218 220 222 224 224 223 223 225 226 227 227 228 231 232 233 234 234 233 232 233 236 237 237 236 236 237 238 239 244 249 252 252 259 273 284 284 274 268 271 273 273
216 218 220 222 224 225 226 226 227 229 230 231 232 234 236 236 237 238 237 235 235 237 238 238 239 239 240 242 244 247 250 253 253 257 270 284 287 275 270 276 280 279
214 217 218 221 224 226 227 228 229 231 233 234 235 237 237 237 237 240 239 238 237 238 238 240 241 242 244 247 250 251 253 253 254 259 267 277 285 280 272 272 277 280
214 217 219 220 223 226 227 228 229 231 233 235 237 238 238 237 238 240 240 240 240 240 240 241 242 244 246 250 253 255 258 257 256 260 265 269 276 281 275 268 270 276
214 217 219 220 222 225 227 229 231 232 233 236 238 240 239 239 240 240 239 240 242 243 243 242 243 245 248 251 254 256 260 261 258 258 261 264 268 274 274 268 266 270
215 216 218 220 221 223 226 229 232 233 234 236 238 240 241 241 242 243 241 241 243 245 245 244 245 247 249 252 255 257 259 260 256 254 257 261 265 268 269 267 266 268
215 216 218 220 221 222 225 229 231 233 234 236 238 240 242 242 243 244 244 244 246 247 248 247 246 247 249 252 255 257 259 259 256 254 257 261 264 264 265 266 267 268
215 217 218 219 220 221 224 227 230 232 233 235 237 240 242 243 244 245 246 246 248 250 251 250 249 249 249 251 254 257 259 259 258 258 259 261 262 262 264 267 269 271
215 217 218 219 220 221 223 225 228 230 232 234 236 239 241 244 246 247 247 247 249 252 253 251 251 250 250 251 252 255 257 259 260 260 261 262 262 263 264 266 269 272
215 217 217 218 220 222 224 225 226 227 229 232 234 237 240 243 246 247 247 247 248 250 252 252 251 251 251 251 251 253 255 257 259 260 262 264 264 265 266 266 268 272
215 216 217 218 221 223 225 226 226 226 228 230 232 235 238 240 243 244 245 246 247 249 250 251 252 251 251 252 253 255 256 257 259 260 262 264 265 267 267 267 268 272
215 216 217 219 221 223 225 227 226 226 227 229 231 232 235 237 239 240 242 244 247 249 250 252 252 252 252 253 254 256 257 259 260 261 262 263 264 265 266 267 268 270
215 217 218 220 222 224 225 226 226 227 227 228 230 231 232 234 236 238 240 242 245 247 249 251 252 252 252 253 254 255 257 259 260 261 263 263 264 265 265 265 266 268
217 218 219 220 222 223 225 226 226 227 227 227 228 230 231 232 234 236 238 240 242 245 247 249 250 251 252 252 253 255 256 257 258 260 261 263 264 265 264 264 265 266
217 218 220 221 222 223 224 225 226 227 227 227 228 229 231 232 233 235 236 237 239 241 244 246 248 250 251 252 253 254 254 255 256 257 259 261 262 263 263 264 264 265
217 218 219 220 220 222 224 225 226 227 227 227 228 229 230 231 232 233 234 235 237 239 241 242 245 248 251 253 254 254 254 254 254 255 256 257 258 259 261 262 264 265
216 216 217 219 220 221 222 224 225 225 226 227 228 229 230 230 231 232 234 235 236 237 239 240 242 246 249 252 253 253 253 252 252 254 254 254 255 256 257 260 262 264
214 215 216 217 219 220 221 222 223 224 225 226 228 229 230 229 230 232 234 236 236 237 238 239 241 245 247 250 252 253 252 251 251 252 252 252 253 253 255 258 259 262
214 214 215 217 218 219 220 221 221 222 224 225 227 229 229 229 230 232 234 236 236 237 238 240 242 244 246 247 250 252 252 250 249 249 250 251 251 252 254 255 256 258
213 213 214 217 218 219 219 219 220 222 223 225 226 227 227 228 230 231 233 234 235 237 238 240 242 243 244 245 247 250 251 249 248 248 248 250 250 251 253 254 255 256
212 213 214 216 217 217 217 218 220 221 223 225 225 226 227 229 230 230 232 233 235 236 238 240 242 243 243 244 245 247 248 248 247 246 246 247 250 251 252 253 255 256
214 213 214 216 216 215 216 218 219 222 223 224 224 226 228 230 231 232 232 233 235 235 236 239 243 243 242 242 244 245 245 244 244 244 244 245 248 250 251 253 254 254
236 223 217 216 216 215 216 218 220 222 223 223 223 225 227 229 231 233 234 235 235 235 236 239 242 243 242 242 243 242 240 239 240 241 242 243 246 248 249 251 253 253
265 246 233 224 219 218 218 220 221 222 223 223 223 225 227 229 231 232 234 235 236 236 236 239 242 244 243 242 242 241 238 237 237 237 238 241 244 247 248 249 252 254
273 257 243 232 225 223 223 222 223 224 224 224 225 226 228 231 231 232 234 235 236 237 238 239 242 244 244 243 242 240 237 236 235 234 234 238 241 244 247 248 250 252
293 264 249 240 232 228 227 226 225 225 225 225 226 227 229 231 232 232 234 236 237 238 238 239 241 243 244 244 243 240 237 235 232 230 232 235 238 240 243 245 248 250